Current Conditions for Foresthill, CA. Dawn, Overcast, Dry   
Visibility: Less 1/4 mile
Cloud ht: 364 ft
Space WX Alerts: EXTENDED WARNING:  Geomagnetic K-index of 4 expected ( Latest Alert ) - Issue Time: 2020 Apr 08 2354 UTC

  Summary / Temperature 

Current Temperature
44.0°F
6.7°C
(24/hr Ago)
42.7°F
(Apparent temp)
42.3°F
Cool
Wind Chill Graphs
44.0°F 
Wind Chill-Avg
44.5°F 6.9°C
 --- Virtual Temp: 45.7°F ---

 Temp Rate:

 24/hr Difference:

 Avg Running Temp:

 Todays High:

 Todays Low:

 Y-days High:

 Y-days Low:

 Todays WChill:

 Y-days WChill:

 Evapotranspiration:

-0.8°F/hr 

+1.3°F

44.9°F

48.5°F 12:00am

44.0°F 6:56am

55.6°F 2:07pm

42.3°F 12:00am

40.6°F 6:54am

36.6°F 5:19am

-0.003 in

115' Above Ground

 Temperature:

 6'AGL VRS 115'AGL:

 Avg Running Temp:

 Humidity:

 Todays High:

 Todays Low:

 Y-days High:

 Y-days Low:

43.0°F 

-1°F

44.4°F

94% 

48.0°F 12:00am

43.0°F 6:50am

57.0°F 4:08am

45.0°F 4:54am

Temp & Humidity Graphs

  Wind 

Wind Speed

 Calm

Gusting to

 6.0 mph

Wind from S

182°  S

Calm

 Avg speed:

 Wind Run:

 Peak Gust:

Calm 

11.0 miles

  12.0 mph 4:33am

  Almanac  

Moon age: 16 days,11 hours,34 minutes,97%

Waning Gibbous
97%
Illuminated
16 days in cycle

 Moonrise:

 Moonset:

 Sunrise:

 Sunset:

 Solar Noon:

9:53pm

7:52am

6:32am

7:33pm

1:05pm

2min 29s more daylight tomorrow 

  Solar Radiation 

(Current Solar)
  7 W/m2
(Todays High)
 7 W/m2@6:54am
Feels like: 45.7°F in the sun

Rain

 Rain Today:

 Rain Rate (/hr):

 Rain last hour:

 Rain Yesterday:

 This Month:

 Season Total:

1 Day Since Last Rain Day

0.00 in

0.000 in

0.00 in

0.00 in

4.35 in

33.49 in

Updated Time

Updated: 4/9/20  6:57am

(Updated  sec ago)

Humidity & Barometer

 Humidity:

 Wetbulb:

 Dew Point:

 Barometer:

95% 

43.4°F 

42.7°F 

30.019 inHg 

 Baro Trend:  Steady 
Northern Calif
Preparedness
Fire 
Level 

    UV Index  

(Current UV)
0.0  None
(Todays High) @ 12:00am
0.0   None

National Weather Service Forecast

Today

Today: Chance Rain Showers
Chance Rain Showers
Tonight

Tonight: Slight Chance Rain Showers
Slight Chance Rain Showers
Friday

Friday: Mostly Sunny
Mostly Sunny
Friday
Night
Friday Night: Partly Cloudy
Partly Cloudy
Saturday

Saturday: Mostly Sunny
Mostly Sunny
Saturday
Night
Saturday Night: Partly Cloudy
Partly Cloudy
Hi 51 °F Lo 43 °F Hi 60 °F Lo 45 °F Hi 63 °F Lo 47 °F

Foresthill Probe 2 Stats  
Foresthill Probe 2: is located on Thomas Street
at 3000 feet. The main Foresthill Weather site
is located on Melody ln at the 2860 foot elevation

Calm
43.9°F
6.6°C
Temp Rate:
-0.6°F
Calm
Gusting to
1.0 mph
(Humidity)
97%
Wind from S
169°  S
Updated: 09/04/20 - 06:58:48
 Todays High: 47.6°F 00:00
 Todays Low: 43.8°F 06:58
 Rain Today: 0.00 in
 Season Total: 33.87 in

Foresthill Wx: Monthly,Yearly, Highs and Lows 

Foresthill  
This Weather Data is coming from the main Foresthill
Weather site located on Melody ln at the 2860 foot
elevation
Not Foresthill Probe 2
Weather Data
Month
  High
Month
  Low
Year
High
Year
Low
Temp 58.8°F
4/3/20
32.7°F
4/5/20
76.1°F
3/12/20
28.3°F
2/3/20
Humidity 100%
4/5/20
24%
4/2/20
100%
1/8/20
12%
2/17/20
Heat Index 59.2°F
4/8/20
36.7°F
4/2/20
74.8°F
3/12/20
28.2°F
2/4/20
Wind Chill 58.8°F
4/3/20
22.4°F
4/5/20
76.1°F
3/12/20
14.7°F
2/3/20
Wind Gust 45 mph
4/5/20
0 mph
4/1/20
46 mph
2/9/20
0 mph
1/1/20
Barometer 30.16 in
4/7/20
29.67 in
4/5/20
30.59 in
1/5/20
29.66 in
3/13/20
ET 0.15 in
4/3/20
0.00 in
4/1/20
0.16 in
3/12/20
0.00 in
1/1/20
Dew Point 48.8°F
4/8/20
16.0°F
4/1/20
49.2°F
1/25/20
-2.6°F
2/3/20
Visible Satellite Pacific Satellite US Radar Satellite Imagery Sacramento,CA.  (click to enlarge)
NWS Weather Forecast - Summary
Updated: Thursday, April 9, 2020 - 3:46am PDT
NWS Weather Forecast: Today and Tonight (Updated: Thu, 09-Apr-2020 2:39am PDT)
Today

Today: Chance Rain Showers
Chance Rain Showers

Hi 51 °F
NWS forecast: A chance of rain showers. Mostly cloudy, with a high near 51. West southwest wind around 6 mph. Chance of precipitation is 40%.
Tonight

Tonight: Slight Chance Rain Showers
Slight Chance Rain Showers

Lo 43 °F
NWS forecast: A slight chance of rain showers before 5am. Mostly cloudy, with a low around 43. West northwest wind 2 to 6 mph. Chance of precipitation is 20%.
YR.NO 10 Day Weather forecast
Last update: 04/09/2020 @ 02:03
Next update: 04/09/2020 @ 08:13
Provided by: 22
      Temperature Precipitation Pressure Wind  
Today
04/09/2020
05:00 06:00 43°F < 0.01 in 30.02 inHg Light air from south 1 mph
  06:00 12:00 41°F 0.04 in 30.04 inHg Light air from south-southwest 3 mph
  12:00 18:00 45°F 0.02 in 30.09 inHg Light breeze from west-southwest 4 mph
  18:00 00:00 46°F 0.05 in 30.03 inHg Light breeze from west-southwest 4 mph
    (Click to enlarge)
meteogram

    Forecast for next 9 days

      Temperature Precip Pressure Wind  
Friday
04/10/2020
00:00 06:00 43°F < 0.01 in 30.11 inHg Light air from northeast 2 mph
  06:00 12:00 39°F   30.08 inHg Light air from east-northeast 3 mph
  12:00 18:00 55°F   30.01 inHg Light breeze from west 6 mph
  18:00 00:00 55°F   29.96 inHg Light breeze from west-southwest 5 mph
      Temperature Precip Pressure Wind  
Saturday
04/11/2020
00:00 06:00 41°F   30.04 inHg Light air from east 3 mph
  06:00 12:00 34°F   30.00 inHg Light air from east 3 mph
  11:00 17:00 57°F   30.00 inHg Light breeze from west 5 mph
  17:00 23:00 59°F   29.94 inHg Light breeze from southwest 4 mph
  23:00 05:00 41°F   30.00 inHg Light breeze from east 4 mph
      Temperature Precip Pressure Wind  
Sunday
04/12/2020
05:00 11:00 37°F   29.97 inHg Light breeze from east-northeast 5 mph
  11:00 17:00 59°F < 0.01 in 30.00 inHg Light air from west-southwest 3 mph
  17:00 23:00 61°F   29.97 inHg Light air from west 3 mph
  23:00 05:00 43°F   30.02 inHg Light breeze from east-northeast 4 mph
      Temperature Precip Pressure Wind  
Monday
04/13/2020
05:00 11:00 36°F   30.03 inHg Light breeze from east-northeast 7 mph
  11:00 17:00 64°F   30.05 inHg Light air from north 2 mph
  17:00 23:00 66°F   30.04 inHg Gentle breeze from north-northeast 8 mph
  23:00 05:00 37°F   30.17 inHg Gentle breeze from east-northeast 9 mph
      Temperature Precip Pressure Wind  
Tuesday
04/14/2020
05:00 11:00 36°F   30.16 inHg Gentle breeze from east-northeast 9 mph
  11:00 17:00 63°F   30.22 inHg Light breeze from west-southwest 5 mph
  17:00 23:00 66°F   30.16 inHg Light breeze from west 4 mph
  23:00 05:00 41°F   30.20 inHg Light breeze from east 5 mph
      Temperature Precip Pressure Wind  
Wednesday
04/15/2020
05:00 11:00 39°F   30.14 inHg Light breeze from east-northeast 6 mph
  11:00 17:00 66°F   30.10 inHg Light breeze from west 4 mph
  17:00 23:00 66°F   30.00 inHg Light breeze from west-northwest 6 mph
  23:00 05:00 45°F   30.01 inHg Gentle breeze from east-northeast 8 mph
      Temperature Precip Pressure Wind  
Thursday
04/16/2020
05:00 11:00 45°F   29.96 inHg Gentle breeze from east-northeast 9 mph
  11:00 17:00 68°F   29.93 inHg Light air from east-southeast 3 mph
  17:00 23:00 66°F   29.87 inHg Light breeze from west-southwest 6 mph
  23:00 05:00 50°F   29.93 inHg Light breeze from east 5 mph
      Temperature Precip Pressure Wind  
Friday
04/17/2020
05:00 11:00 45°F   29.91 inHg Light breeze from east 6 mph
  11:00 17:00 66°F   29.97 inHg Light breeze from west-southwest 5 mph
  17:00 23:00 66°F   29.98 inHg Light air from west 2 mph
  23:00 05:00 48°F   30.02 inHg Light breeze from east-northeast 6 mph
      Temperature Precip Pressure Wind  
Saturday
04/18/2020
05:00 11:00 43°F   29.99 inHg Light breeze from east 6 mph

NOAA Local Storm Report
2 MILES WEST-SOUTHWEST OF CAMINO   ( More )
DATE
04/06/2020
TIME
9:00 AM
COUNTY
EL DORADO
STATE
CA
GEOGRAPHIC
38.73N 120.71W
SOURCE
CO-OP OBSERVER
SNOW MEASURED AT 1.0 INCH
a cocorahs observer 2 wsw camino measured 1 inch of snow over 24 hours, elevation 2,900 feet.
How Close Are We To this Month's Temperature Record ?
Updated Thursday, Apr 9, 2020- 6:55:00 AM

Current Temperature: 44.0°F

April's High: Temperature Record 83.2°F - Set on Sun, Apr 22, 2012 - 2:12:00 PM
We are currently 39.2°F Less than this Month's record High

April's Low: Temperature Record 31.4°F - Set on Thu, Apr 5, 2012 - 6:23:00 AM
We are currently 12.6°F More than this Month's record Low

Weather History For Thursday, April 9, 2020


On this Day - In Weather History ...
Data courtesy of weatherforyou.com
powered by Cumulus v1.9.3 (1059)
Ambient Weather VWS v14.00
Top Website Map Copyright © 2007 - 2020 Foresthillweather.com Never base important decisions on this or any weather information obtained from the Internet